User: anonymous   Login
Location: Unspecified
(0.0000°N, 0.0000°E)
Time: 06:23:33
(UTC+02:00)
Language:

Cosmos 1898 Rocket - Orbit

View from above orbital plane
View from above orbital plane
View from above satellite
View from above satellite

Ground track
Ground track

The orbit data is extracted from the following two-line orbital elements,

1 18586U 87098B   18111.39536450  .00000148  00000-0  59012-4 0  9991
2 18586  74.0058  87.7854 0019756  70.6440 289.6846 14.36819153591629
Epoch (UTC): 21 April 2018 09:29:19
Eccentricity: 0.0019756
inclination: 74.0058°
perigee height: 755 km
apogee height: 783 km
right ascension of ascending node: 87.7854°
argument of perigee: 70.6440°
revolutions per day: 14.36819153
mean anomaly at epoch: 289.6846°
orbit number at epoch: 59162

The dashed part of the orbit path shows where the satellite is in the earth's shadow,  

DLR